When you browse on this site, cookies collect data to enhance your experience and personalize the content and advertising you see.
Visit our Privacy Policy to learn more. By continuing to use the site, you agree to this use of cookies and data.
  • In Belgien
  • Länderverzeichnis
  • Für 7 Tage
  • Wassertemperatur
  • Satellitenkarten
  • Wetterkarte
  • Widgets
  • user-avatar
    Anmelden

    Stündliche Wetter Jerewan

    Heute, 19 Januar, Samstag

    Zeit Temperatur Niederschläge Wind Luftdruck Luftfeuchtigkeit
    00:00 -1°C° 0 mm 1 m/S 693 mmHg 48%
    01:00 -1°C° 0 mm 1 m/S 693 mmHg 48%
    02:00 -1°C° 0 mm 1 m/S 693 mmHg 47%
    03:00 -2°C° 0 mm 1 m/S 693 mmHg 48%
    04:00 -2°C° 0 mm 1 m/S 692 mmHg 47%
    05:00 -4°C° 0 mm 2 m/S 692 mmHg 47%
    06:00 -4°C° 0 mm 2 m/S 692 mmHg 46%
    07:00 -3°C° 0 mm 2 m/S 692 mmHg 44%
    08:00 0°C° 0 mm 1 m/S 693 mmHg 42%
    09:00 +1°C° 0 mm 1 m/S 693 mmHg 39%
    10:00 +2°C° 0 mm 1 m/S 692 mmHg 37%
    11:00 +3°C° 0 mm 1 m/S 692 mmHg 35%
    12:00 +4°C° 0 mm 1 m/S 692 mmHg 32%
    13:00 +4°C° 0 mm 1 m/S 691 mmHg 32%
    14:00 +5°C° 0 mm 1 m/S 691 mmHg 32%
    15:00 +5°C° 0 mm 1 m/S 691 mmHg 33%
    16:00 +4°C° 0 mm 1 m/S 691 mmHg 35%
    17:00 +3°C° 0 mm 1 m/S 692 mmHg 37%
    18:00 -1°C° 0 mm 2 m/S 692 mmHg 38%
    19:00 -1°C° 0 mm 2 m/S 692 mmHg 38%
    20:00 -1°C° 0 mm 2 m/S 693 mmHg 38%
    21:00 -2°C° 0 mm 2 m/S 693 mmHg 38%
    22:00 -2°C° 0 mm 2 m/S 693 mmHg 37%
    23:00 -2°C° 0 mm 2 m/S 693 mmHg 37%

    Morgen, 20 Januar, Sonntag

    Zeit Temperatur Niederschläge Wind Luftdruck Luftfeuchtigkeit
    00:00 -2°C° 0 mm 2 m/S 693 mmHg 36%
    01:00 -3°C° 0 mm 2 m/S 693 mmHg 35%
    02:00 -3°C° 0 mm 2 m/S 693 mmHg 35%
    03:00 -1°C° 0 mm 1 m/S 693 mmHg 35%
    04:00 -1°C° 0 mm 1 m/S 693 mmHg 34%
    05:00 -1°C° 0 mm 1 m/S 693 mmHg 34%
    06:00 -1°C° 0 mm 1 m/S 693 mmHg 33%
    07:00 0°C° 0 mm 1 m/S 694 mmHg 32%
    08:00 +1°C° 0 mm 1 m/S 694 mmHg 31%
    09:00 +2°C° 0 mm 1 m/S 694 mmHg 30%
    10:00 +3°C° 0 mm 1 m/S 694 mmHg 28%
    11:00 +4°C° 0 mm 1 m/S 694 mmHg 26%
    12:00 +4°C° 0 mm 1 m/S 693 mmHg 24%
    13:00 +5°C° 0 mm 1 m/S 693 mmHg 24%
    14:00 +5°C° 0 mm 1 m/S 693 mmHg 25%
    15:00 +5°C° 0 mm 1 m/S 693 mmHg 25%
    16:00 +4°C° 0 mm 1 m/S 693 mmHg 27%
    17:00 +3°C° 0 mm 1 m/S 693 mmHg 29%
    18:00 +2°C° 0 mm 1 m/S 694 mmHg 31%
    19:00 -1°C° 0 mm 2 m/S 694 mmHg 32%
    20:00 -1°C° 0 mm 2 m/S 694 mmHg 32%
    21:00 -2°C° 0 mm 2 m/S 694 mmHg 33%
    22:00 -2°C° 0 mm 2 m/S 694 mmHg 34%
    23:00 0°C° 0 mm 1 m/S 694 mmHg 34%

    übermorgen, 21 Januar, Montag

    Zeit Temperatur Niederschläge Wind Luftdruck Luftfeuchtigkeit
    00:00 -1°C° 0 mm 1 m/S 694 mmHg 34%
    01:00 -1°C° 0 mm 1 m/S 695 mmHg 35%
    02:00 -1°C° 0 mm 1 m/S 695 mmHg 35%
    03:00 -1°C° 0 mm 1 m/S 695 mmHg 35%
    04:00 -1°C° 0 mm 1 m/S 695 mmHg 36%
    05:00 -1°C° 0 mm 1 m/S 694 mmHg 36%
    06:00 -2°C° 0 mm 1 m/S 694 mmHg 36%
    07:00 -1°C° 0 mm 1 m/S 694 mmHg 35%
    08:00 0°C° 0 mm 1 m/S 694 mmHg 34%
    09:00 +1°C° 0 mm 1 m/S 695 mmHg 33%
    10:00 +2°C° 0 mm 1 m/S 694 mmHg 31%
    11:00 +3°C° 0 mm 1 m/S 694 mmHg 29%
    12:00 +4°C° 0 mm 1 m/S 693 mmHg 27%
    13:00 +4°C° 0 mm 1 m/S 693 mmHg 27%
    14:00 +5°C° 0 mm 1 m/S 692 mmHg 27%
    15:00 +4°C° 0 mm 2 m/S 692 mmHg 27%
    16:00 +3°C° 0 mm 2 m/S 692 mmHg 29%
    17:00 +2°C° 0 mm 2 m/S 692 mmHg 31%
    18:00 -1°C° 0 mm 2 m/S 693 mmHg 33%
    19:00 -1°C° 0 mm 2 m/S 692 mmHg 35%
    20:00 -2°C° 0 mm 2 m/S 692 mmHg 36%
    21:00 -2°C° 0 mm 2 m/S 692 mmHg 37%
    22:00 0°C° 0 mm 1 m/S 692 mmHg 38%
    23:00 -1°C° 0 mm 1 m/S 692 mmHg 39%

    22 Januar, Dienstag

    Zeit Temperatur Niederschläge Wind Luftdruck Luftfeuchtigkeit
    00:00 -1°C° 0 mm 1 m/S 692 mmHg 39%
    01:00 -1°C° 0 mm 1 m/S 692 mmHg 39%
    02:00 -1°C° 0 mm 1 m/S 692 mmHg 40%
    03:00 -1°C° 0 mm 1 m/S 692 mmHg 40%
    04:00 -3°C° 0 mm 2 m/S 692 mmHg 40%
    05:00 -4°C° 0 mm 2 m/S 692 mmHg 40%
    06:00 -4°C° 0 mm 2 m/S 691 mmHg 40%
    07:00 -1°C° 0 mm 1 m/S 691 mmHg 38%
    08:00 0°C° 0 mm 1 m/S 692 mmHg 36%
    09:00 +1°C° 0 mm 1 m/S 692 mmHg 35%
    10:00 +2°C° 0 mm 1 m/S 691 mmHg 33%
    11:00 +3°C° 0 mm 1 m/S 691 mmHg 31%
    12:00 +3°C° 0 mm 0 m/S 690 mmHg 29%
    13:00 +5°C° 0 mm 1 m/S 690 mmHg 29%
    14:00 +5°C° 0 mm 1 m/S 690 mmHg 29%
    15:00 +5°C° 0 mm 1 m/S 689 mmHg 30%
    16:00 +4°C° 0 mm 1 m/S 690 mmHg 32%
    17:00 +3°C° 0 mm 1 m/S 690 mmHg 35%
    18:00 +2°C° 0 mm 1 m/S 690 mmHg 37%
    19:00 +2°C° 0 mm 1 m/S 690 mmHg 38%
    20:00 +1°C° 0 mm 1 m/S 691 mmHg 39%
    21:00 +1°C° 0 mm 1 m/S 691 mmHg 40%
    22:00 +1°C° 0 mm 1 m/S 691 mmHg 41%
    23:00 0°C° 0 mm 1 m/S 691 mmHg 41%

    23 Januar, Mittwoch

    Zeit Temperatur Niederschläge Wind Luftdruck Luftfeuchtigkeit
    00:00 0°C° 0 mm 1 m/S 691 mmHg 42%
    01:00 0°C° 0 mm 1 m/S 691 mmHg 42%
    02:00 -1°C° 0 mm 1 m/S 691 mmHg 43%
    03:00 -1°C° 0 mm 1 m/S 691 mmHg 43%
    04:00 -1°C° 0 mm 1 m/S 691 mmHg 43%
    05:00 -1°C° 0 mm 1 m/S 691 mmHg 43%
    06:00 -1°C° 0 mm 1 m/S 691 mmHg 43%
    07:00 0°C° 0 mm 1 m/S 692 mmHg 41%
    08:00 +1°C° 0 mm 1 m/S 692 mmHg 40%
    09:00 +2°C° 0 mm 1 m/S 693 mmHg 38%
    10:00 +3°C° 0 mm 1 m/S 692 mmHg 36%
    11:00 +3°C° 0 mm 2 m/S 692 mmHg 35%
    12:00 +4°C° 0 mm 2 m/S 692 mmHg 34%
    13:00 +4°C° 0 mm 2 m/S 691 mmHg 34%
    14:00 +4°C° 0 mm 2 m/S 691 mmHg 35%
    15:00 +5°C° 0 mm 2 m/S 691 mmHg 35%
    16:00 +4°C° 0 mm 2 m/S 691 mmHg 38%
    17:00 +2°C° 0 mm 2 m/S 692 mmHg 40%
    18:00 +1°C° 0 mm 2 m/S 692 mmHg 43%
    19:00 +1°C° 0 mm 2 m/S 693 mmHg 44%
    20:00 +1°C° 0 mm 2 m/S 693 mmHg 45%
    21:00 -1°C° 0 mm 2 m/S 693 mmHg 47%
    22:00 -1°C° 0 mm 2 m/S 693 mmHg 48%
    23:00 +1°C° 0 mm 1 m/S 693 mmHg 49%

    24 Januar, Donnerstag

    Zeit Temperatur Niederschläge Wind Luftdruck Luftfeuchtigkeit
    00:00 0°C° 0 mm 1 m/S 694 mmHg 50%
    01:00 0°C° 0 mm 1 m/S 693 mmHg 51%
    02:00 0°C° 0 mm 1 m/S 693 mmHg 51%
    03:00 0°C° 0 mm 1 m/S 693 mmHg 52%
    04:00 0°C° 0 mm 1 m/S 693 mmHg 52%
    05:00 -1°C° 0 mm 1 m/S 693 mmHg 52%
    06:00 -1°C° 0 mm 1 m/S 693 mmHg 52%
    07:00 0°C° 0 mm 1 m/S 693 mmHg 49%
    08:00 +1°C° 0 mm 1 m/S 693 mmHg 47%
    09:00 +2°C° 0 mm 1 m/S 694 mmHg 44%
    10:00 +2°C° 0 mm 2 m/S 693 mmHg 42%
    11:00 +3°C° 0 mm 2 m/S 693 mmHg 40%
    12:00 +4°C° 0 mm 2 m/S 692 mmHg 39%
    13:00 +5°C° 0 mm 2 m/S 692 mmHg 38%
    14:00 +5°C° 0 mm 2 m/S 691 mmHg 38%
    15:00 +5°C° 0 mm 3 m/S 691 mmHg 37%
    16:00 +4°C° 0 mm 3 m/S 691 mmHg 40%
    17:00 +3°C° 0 mm 3 m/S 692 mmHg 44%
    18:00 +2°C° 0 mm 3 m/S 692 mmHg 47%
    19:00 +1°C° 0 mm 3 m/S 692 mmHg 48%
    20:00 +2°C° 0 mm 2 m/S 692 mmHg 50%
    21:00 +2°C° 0 mm 2 m/S 692 mmHg 52%
    22:00 +2°C° 0 mm 2 m/S 692 mmHg 52%
    23:00 +1°C° 0 mm 2 m/S 692 mmHg 53%
    Mehr zeigen